[[{"header":{"parameterUnit":"m.s-1","parameterCategory":1,"la1":30.2991,"la2":30.254,"lo1":-89.0895,"lo2":-89.0444,"dy":0.0017,"dx":0.0017,"nx":28,"ny":28,"refTime":"2024-03-15T03:00:00:Z","depth":0,"parameterNumber":2,"parameterNumberName":"U-component_of_WINDS"},"data":[0,0,0,0,0,0,0,0,0,0,0,0,0,0,0,0,0,0,0,0,0,0,0,0,0,0,0,0,0,0,0,0,0,0,0,0,0,0,0,0,0,0,0,0,0,0,0,0,0,0,0,0,0,0,0,0,0,0,-1.0493,-1.0494,0,-1.055,-1.0551,-1.0551,-1.0563,-1.0563,-1.0562,-1.0562,-1.0619,-1.0621,-1.0623,0,0,0,0,0,0,0,0,0,0,0,0,0,-1.0393,-1.0394,-1.0493,-1.0494,-1.0494,-1.055,-1.0551,-1.0551,-1.0563,-1.0563,-1.0562,-1.0562,-1.0618,-1.0621,-1.0623,0,0,0,0,0,0,0,0,0,0,0,0,0,-1.0441,-1.0395,-1.0493,-1.0507,-1.0509,-1.055,-1.0551,-1.0552,-1.0563,-1.0563,-1.0562,-1.0562,-1.0618,-1.062,-1.0623,-1.0653,0,0,-1.0632,-1.0633,0,0,0,0,0,0,0,0,-1.0439,-1.0445,-1.0504,-1.0506,-1.0508,-1.0549,-1.0536,-1.0586,-1.0564,-1.0543,-1.0562,-1.0561,-1.0596,-1.0601,-1.0613,-1.0656,-1.0659,-1.0632,-1.0634,-1.0635,-1.0636,0,0,0,0,0,0,0,-1.0435,-1.0443,-1.0515,-1.0505,-1.0508,-1.051,-1.0516,-1.0546,-1.0572,-1.0544,-1.0546,-1.0552,-1.0597,-1.061,-1.0614,-1.0659,-1.0632,-1.0635,-1.0636,-1.0638,-1.0729,-1.073,0,0,0,0,0,0,-1.043,-1.044,-1.0514,-1.0517,-1.0471,-1.0512,-1.0519,-1.0536,-1.0572,-1.0577,-1.0553,-1.0553,-1.0605,-1.0611,-1.0616,-1.0653,-1.0635,-1.0638,-1.0639,-1.0729,-1.073,-1.073,0,0,0,0,0,0,-1.0427,-1.0436,-1.0511,-1.0479,-1.0489,-1.0515,-1.0534,-1.0538,-1.0551,-1.0578,-1.0583,-1.0561,-1.0605,-1.0612,-1.0644,-1.0655,-1.0639,-1.0642,-1.0728,-1.0729,-1.073,-1.0727,0,0,0,0,0,0,-1.0424,-1.0435,-1.0447,-1.0479,-1.049,-1.0539,-1.0535,-1.0539,-1.0556,-1.0556,-1.0587,-1.0592,-1.0605,-1.064,-1.0647,-1.0659,-1.0644,-1.0727,-1.0728,-1.073,-1.0726,-1.0728,-1.073,0,0,0,0,0,-1.0421,-1.0444,-1.0448,-1.0457,-1.0506,-1.0539,-1.0546,-1.0561,-1.0557,-1.0569,-1.0586,-1.0591,-1.0653,-1.0643,-1.0651,-1.0664,-1.0726,-1.0728,-1.073,-1.0726,-1.0728,-1.0729,0,0,0,0,0,0,-1.0413,-1.0449,-1.0453,-1.0488,-1.051,-1.0541,-1.0557,-1.0563,-1.0587,-1.0586,-1.0604,-1.0611,-1.0641,-1.0656,-1.0644,-1.0695,-1.0689,-1.0693,-1.0684,-1.0686,-1.0687,-1.0683,-1.0646,0,0,0,0,0,-1.0415,-1.0439,-1.0469,-1.0497,-1.0508,-1.053,-1.0546,-1.0555,-1.058,-1.0589,-1.0609,-1.0632,-1.0656,-1.0672,-1.0696,-1.0729,-1.0735,-1.0742,-1.0744,-1.0745,-1.0747,-1.0764,-1.0767,-1.0736,-1.0736,-1.0736,0,0,-1.042,-1.0442,-1.0457,-1.0496,-1.0515,-1.0539,-1.0538,-1.0564,-1.0582,-1.0593,-1.0624,-1.0639,-1.0666,-1.0698,-1.0713,-1.0711,-1.0757,-1.0747,-1.0748,-1.0749,-1.0766,-1.0769,-1.0772,-1.0737,-1.0737,-1.0737,0,0,-1.0441,-1.0461,-1.0485,-1.0504,-1.0533,-1.0547,-1.0553,-1.0584,-1.0594,-1.0626,-1.0634,-1.0656,-1.0698,-1.0716,-1.0731,-1.0759,-1.0763,-1.0766,-1.0774,-1.0791,-1.0793,-1.0795,-1.0804,-1.0807,-1.0769,-1.0769,-1.0769,0,-1.0443,-1.048,-1.0497,-1.0522,-1.0539,-1.055,-1.0574,-1.0592,-1.0627,-1.0638,-1.0635,-1.0688,-1.0707,-1.0743,-1.075,-1.0762,-1.0769,-1.0762,-1.0792,-1.0794,-1.0796,-1.0805,-1.0808,-1.0769,-1.0769,-1.0769,-1.0769,0,-1.048,-1.0506,-1.0522,-1.0556,-1.0574,-1.0599,-1.0619,-1.0636,-1.0644,-1.0659,-1.0691,-1.0714,-1.0742,-1.0752,-1.0761,-1.0789,-1.0787,-1.0788,-1.0783,-1.0799,-1.0807,-1.0811,-1.0769,-1.0769,-1.0769,-1.0769,0,0,-1.0497,-1.0539,-1.0545,-1.056,-1.0592,-1.0612,-1.0637,-1.0666,-1.0679,-1.0703,-1.0724,-1.0759,-1.076,-1.0777,-1.0788,-1.0803,-1.0822,-1.0802,-1.0803,-1.0804,-1.0854,-1.0852,-1.0855,-1.0826,-1.0827,-1.0827,-1.0851,0,-1.052,-1.0565,-1.0581,-1.0618,-1.0642,-1.0653,-1.0675,-1.0697,-1.0711,-1.0733,-1.0749,-1.0773,-1.0773,-1.0784,-1.0799,-1.0816,-1.0832,-1.0815,-1.0844,-1.0845,-1.0836,-1.086,-1.0858,-1.088,-1.0855,-1.0855,-1.0856,0,-1.0554,-1.0578,-1.0617,-1.0646,-1.0656,-1.0675,-1.0702,-1.0723,-1.0748,-1.0758,-1.0777,-1.0786,-1.0812,-1.0807,-1.0842,-1.0831,-1.0844,-1.0854,-1.0855,-1.0858,-1.085,-1.0862,-1.0887,-1.089,-1.0861,-1.0861,-1.086,0,-1.056,-1.0602,-1.0631,-1.0644,-1.0679,-1.0692,-1.0707,-1.0731,-1.0747,-1.0771,-1.0781,-1.0808,-1.0822,-1.0842,-1.0858,-1.0853,-1.0892,-1.0888,-1.09,-1.09,-1.0907,-1.0906,-1.0933,-1.0917,-1.0917,-1.0917,-1.0917,0,-1.0584,-1.0607,-1.0634,-1.0652,-1.0678,-1.0696,-1.0721,-1.0737,-1.0759,-1.0779,-1.0791,-1.081,-1.0831,-1.0853,-1.0866,-1.0893,-1.09,-1.0907,-1.091,-1.0906,-1.0904,-1.0913,-1.0912,-1.0918,-1.0918,-1.0918,-1.0918,0,-1.0595,-1.0614,-1.0646,-1.0676,-1.0684,-1.0702,-1.0728,-1.0745,-1.0761,-1.0786,-1.0793,-1.0817,-1.0843,-1.0862,-1.0896,-1.0904,-1.0933,-1.0937,-1.0924,-1.0926,-1.0936,-1.0934,-1.0969,-1.0974,-1.0956,-1.0956,-1.0956,0,-1.0608,-1.0626,-1.0658,-1.0673,-1.0688,-1.0711,-1.0727,-1.0746,-1.0762,-1.0792,-1.0806,-1.0832,-1.0855,-1.0896,-1.0916,-1.0941,-1.0945,-1.0956,-1.0949,-1.0943,-1.0944,-1.0942,-1.0943,-1.0956,-1.0956,-1.0956,-1.0956,0,-1.0629,-1.0637,-1.066,-1.0687,-1.0706,-1.0728,-1.075,-1.0761,-1.0783,-1.0801,-1.0828,-1.0845,-1.0879,-1.0906,-1.0933,-1.0949,-1.0956,-1.0958,-1.0962,-1.0957,-1.0949,-1.0952,-1.0926,-1.0957,-1.0957,-1.0957,-1.0957,-1.0957,-1.064,-1.0656,-1.0681,-1.0707,-1.0725,-1.0745,-1.0763,-1.078,-1.0803,-1.0832,-1.0842,-1.0869,-1.0894,-1.0932,-1.0947,-1.0969,-1.0968,-1.0974,-1.0976,-1.0976,-1.0976,-1.0946,-1.0974,-1.0974,-1.0974,-1.0974,-1.0974,0,-1.0661,-1.0677,-1.07,-1.073,-1.075,-1.0756,-1.0781,-1.0796,-1.082,-1.0843,-1.0864,-1.0895,-1.092,-1.0943,-1.0969,-1.0982,-1.0986,-1.0988,-1.0987,-1.099,-1.0975,-1.0968,-1.0985,-1.0985,-1.0985,-1.0985,-1.0985,-1.0985,-1.0673,-1.0701,-1.0712,-1.0749,-1.0766,-1.0792,-1.0806,-1.0824,-1.0842,-1.0875,-1.0897,-1.0911,-1.0933,-1.0962,-1.0985,-1.0991,-1.1,-1.1001,-1.1008,-1.0993,-1.0991,-1.099,-1.0984,-1.1003,-1.1003,-1.1021,-1.1021,-1.1021]},{"header":{"parameterUnit":"m.s-1","parameterCategory":1,"la1":30.2991,"la2":30.254,"lo1":-89.0895,"lo2":-89.0444,"dy":0.0017,"dx":0.0017,"nx":28,"ny":28,"refTime":"2024-03-15T03:00:00:Z","depth":0,"parameterNumber":3,"parameterNumberName":"V-component_of_WINDS"},"data":[0,0,0,0,0,0,0,0,0,0,0,0,0,0,0,0,0,0,0,0,0,0,0,0,0,0,0,0,0,0,0,0,0,0,0,0,0,0,0,0,0,0,0,0,0,0,0,0,0,0,0,0,0,0,0,0,0,0,2.4143,2.4144,0,2.4225,2.4226,2.4227,2.429,2.4291,2.4292,2.4292,2.4375,2.4376,2.4378,0,0,0,0,0,0,0,0,0,0,0,0,0,2.404,2.4041,2.4143,2.4144,2.4145,2.4225,2.4226,2.4227,2.429,2.4291,2.4292,2.4292,2.4374,2.4376,2.4378,0,0,0,0,0,0,0,0,0,0,0,0,0,2.4099,2.4042,2.4142,2.4186,2.4191,2.4225,2.4226,2.4228,2.429,2.4291,2.4292,2.4293,2.4373,2.4376,2.4378,2.4376,0,0,2.4386,2.4387,0,0,0,0,0,0,0,0,2.4096,2.4103,2.4178,2.4183,2.4188,2.4249,2.422,2.4277,2.429,2.4252,2.4292,2.4293,2.4332,2.4338,2.4351,2.4379,2.4383,2.4386,2.4388,2.4389,2.4389,0,0,0,0,0,0,0,2.4092,2.41,2.4175,2.4179,2.4186,2.4201,2.4211,2.4231,2.4286,2.4256,2.426,2.4269,2.4335,2.4349,2.4354,2.4384,2.4386,2.4388,2.439,2.4391,2.4418,2.4417,0,0,0,0,0,0,2.4081,2.4096,2.4173,2.4178,2.4143,2.4202,2.4213,2.4228,2.4286,2.4296,2.4269,2.4272,2.4344,2.4351,2.4357,2.436,2.4389,2.4391,2.4392,2.4419,2.4418,2.4417,0,0,0,0,0,0,2.4079,2.4087,2.4169,2.4138,2.415,2.4203,2.422,2.4229,2.4244,2.4296,2.4306,2.4273,2.4345,2.4353,2.4371,2.4364,2.4392,2.4394,2.442,2.4418,2.4417,2.4365,0,0,0,0,0,0,2.4075,2.4086,2.4085,2.4138,2.4151,2.4182,2.4219,2.423,2.4248,2.4253,2.4302,2.4311,2.4346,2.4367,2.4374,2.4368,2.4396,2.4421,2.4419,2.4418,2.4367,2.4362,2.4357,0,0,0,0,0,2.4071,2.4066,2.4085,2.4094,2.4152,2.4182,2.419,2.423,2.4247,2.4247,2.4281,2.431,2.4363,2.4369,2.4376,2.4371,2.4421,2.442,2.4418,2.437,2.4363,2.4357,0,0,0,0,0,0,2.4009,2.4073,2.4095,2.4106,2.4138,2.4192,2.4194,2.4221,2.4249,2.4252,2.4301,2.4312,2.4326,2.435,2.4355,2.4373,2.4396,2.4396,2.4357,2.4351,2.4346,2.434,2.4398,0,0,0,0,0,2.3997,2.4016,2.4071,2.4076,2.4091,2.4139,2.4154,2.4183,2.4218,2.4231,2.4267,2.4299,2.4324,2.4338,2.4363,2.4371,2.4384,2.4371,2.4366,2.4362,2.4361,2.437,2.4366,2.4412,2.4412,2.4412,0,0,2.3971,2.4009,2.4018,2.4064,2.4093,2.4112,2.415,2.4168,2.4184,2.4234,2.4254,2.4281,2.4321,2.4334,2.4342,2.4355,2.4352,2.436,2.4356,2.4358,2.4368,2.4364,2.436,2.441,2.4411,2.4411,0,0,2.3936,2.3965,2.3974,2.4002,2.4045,2.4078,2.408,2.413,2.4151,2.4172,2.4211,2.423,2.427,2.4298,2.4317,2.4295,2.4323,2.4301,2.4275,2.4283,2.428,2.4277,2.4271,2.4268,2.43,2.43,2.43,0,2.3899,2.393,2.3975,2.3992,2.4012,2.406,2.407,2.4095,2.4143,2.4156,2.417,2.4224,2.4254,2.4276,2.4271,2.4284,2.4289,2.4296,2.4276,2.4274,2.4272,2.4267,2.4265,2.4298,2.4298,2.4298,2.4298,0,2.3884,2.3905,2.3907,2.3954,2.3975,2.3988,2.4035,2.405,2.4078,2.411,2.4132,2.417,2.4205,2.4212,2.4238,2.4239,2.4246,2.4267,2.4292,2.4264,2.4261,2.4259,2.4294,2.4295,2.4295,2.4296,0,0,2.381,2.3884,2.3884,2.3908,2.396,2.3977,2.3993,2.4029,2.4042,2.4074,2.409,2.4125,2.4146,2.4168,2.4198,2.4205,2.4188,2.4226,2.4228,2.4219,2.4194,2.4179,2.4176,2.4207,2.4207,2.4207,2.4191,0,2.3784,2.3816,2.3858,2.3877,2.3899,2.3946,2.396,2.3994,2.4024,2.4047,2.408,2.4105,2.413,2.4144,2.4153,2.4188,2.4184,2.419,2.4223,2.4224,2.4213,2.4173,2.4157,2.414,2.419,2.419,2.419,0,2.3757,2.379,2.3811,2.3864,2.3875,2.3887,2.3925,2.3945,2.3985,2.4007,2.4033,2.4066,2.4087,2.4108,2.4138,2.4141,2.4157,2.4177,2.4177,2.4183,2.4206,2.418,2.4136,2.4134,2.4187,2.4187,2.4188,0,2.3705,2.3753,2.3773,2.3791,2.3853,2.3861,2.3887,2.3928,2.3948,2.398,2.3994,2.4028,2.4047,2.4072,2.4115,2.4126,2.4141,2.4165,2.416,2.4159,2.4162,2.4162,2.4122,2.417,2.417,2.417,2.417,0,2.3672,2.3684,2.375,2.3762,2.3778,2.3826,2.384,2.387,2.3907,2.3926,2.3968,2.3985,2.4039,2.4063,2.4096,2.4117,2.4125,2.4144,2.4152,2.4141,2.4139,2.4153,2.4156,2.4169,2.4169,2.4169,2.417,0,2.3616,2.366,2.3686,2.3743,2.3758,2.3767,2.3816,2.383,2.3864,2.3888,2.3897,2.3949,2.398,2.4024,2.4068,2.409,2.4107,2.412,2.4094,2.4099,2.4093,2.4094,2.4063,2.4062,2.4108,2.4108,2.4107,0,2.3593,2.3603,2.3663,2.368,2.3705,2.3731,2.3752,2.38,2.3821,2.3869,2.3877,2.3912,2.3942,2.3989,2.4031,2.4065,2.4081,2.4067,2.4086,2.4075,2.4083,2.4082,2.4085,2.4063,2.4062,2.4062,2.4061,0,2.3548,2.3571,2.36,2.3638,2.3662,2.3694,2.3727,2.3738,2.3794,2.3815,2.3848,2.3871,2.3917,2.3952,2.3992,2.4019,2.405,2.4055,2.4056,2.4045,2.403,2.4041,2.4084,2.4056,2.4056,2.4057,2.4057,2.4057,2.351,2.3522,2.3567,2.3599,2.363,2.3661,2.3678,2.3715,2.3743,2.3785,2.3812,2.3844,2.3886,2.3944,2.397,2.3996,2.4008,2.4009,2.401,2.401,2.4007,2.4025,2.4003,2.4003,2.4003,2.4004,2.4004,0,2.3469,2.3501,2.353,2.3577,2.3602,2.363,2.3669,2.3689,2.3717,2.3754,2.3783,2.3822,2.3856,2.3902,2.3939,2.3951,2.3967,2.396,2.396,2.3966,2.3992,2.3989,2.3947,2.3947,2.3947,2.3947,2.3947,2.3947,2.3451,2.3475,2.3503,2.3544,2.3575,2.3608,2.3628,2.3658,2.3688,2.373,2.3759,2.3789,2.383,2.3871,2.3904,2.3917,2.3929,2.3918,2.3935,2.3959,2.3964,2.3969,2.3966,2.392,2.392,2.3907,2.3907,2.3907]}]]